Corinth, MS

1:38 AM CDT on April 27, 2017 (GMT -0500)
Turner

Weather History for KCRX - April, 2013

Change the Weather History Date:

Monday, April 1, 2013

  Actual Average Record
Temperature  
Mean Temperature 54 °F -  
Max Temperature 68 °F 71 °F 88 °F (1963)
Min Temperature 41 °F 45 °F 29 °F (1987)
Degree Days  
Heating Degree Days 10    
Growing Degree Days 4 (Base 50)    
Moisture  
Dew Point 43 °F    
Average Humidity 69    
Maximum Humidity 100    
Minimum Humidity 37    
Precipitation  
Precipitation 0.00 in - - ()
Sea Level Pressure  
Sea Level Pressure 30.04 in    
Wind  
Wind Speed 4 mph (NNW)    
Max Wind Speed 12 mph    
Max Gust Speed 17 mph    
Visibility 7 miles    
Events Fog    
Averages and records for this station are not official NWS values.
T = Trace of Precipitation, MM = Missing Value Source: NWS Daily Summary

Daily Weather History Graph

Daily Weather History Graph

Search for Another Location

Airport or City:

Trip Planner

Search our weather history database for the weather conditions in past years. The results will help you decide how hot, cold, wet, or windy it might be!

Date:

Astronomy

Apr. 01, 2013 Rise Set
Actual Time 6:40 AM CDT 7:15 PM CDT
Civil Twilight 6:15 AM CDT 7:41 PM CDT
Nautical Twilight 5:45 AM CDT 8:11 PM CDT
Astronomical Twilight 5:15 AM CDT 8:42 PM CDT
Moon 12:13 AM CDT (4/1) 10:37 AM CDT (4/1)
Length of Visible Light 13h 25m
Length of Day
12h 34m
Waning Gibbous, 67% of the Moon is Illuminated
Apr 1
Waning Gibbous
Apr 2
Last Quarter
Apr 10
New
Apr 18
First Quarter
Apr 25
Full

Hourly Weather History & Observations

Time (CDT) Temp. Windchill Dew Point Humidity Pressure Visibility Wind Dir Wind Speed Gust Speed Precip Events Conditions
12:15 AM 46.4 °F 45.2 °F 46.4 °F 100% 29.93 in 0.2 mi West 3.5 mph - N/A Fog Fog
12:35 AM 46.4 °F - 44.6 °F 93% 29.93 in 0.8 mi Calm Calm - N/A   Mostly Cloudy
12:55 AM 44.6 °F 43.1 °F 44.6 °F 100% 29.94 in 0.8 mi NW 3.5 mph - N/A   Overcast
1:15 AM 46.4 °F - 44.6 °F 93% 29.94 in 0.2 mi Calm Calm - N/A Fog Fog
1:35 AM 46.4 °F 45.2 °F 44.6 °F 93% 29.95 in 0.5 mi WNW 3.5 mph - N/A Fog Fog
1:55 AM 44.6 °F 43.1 °F 44.6 °F 100% 29.95 in 3.0 mi WNW 3.5 mph - N/A   Partly Cloudy
2:15 AM 44.6 °F - 42.8 °F 93% 29.95 in 7.0 mi Calm Calm - N/A   Clear
2:35 AM 44.6 °F - 42.8 °F 93% 29.95 in 9.0 mi Calm Calm - N/A   Clear
3:15 AM 42.8 °F - 41.0 °F 93% 29.95 in 0.5 mi Calm Calm - N/A Fog Fog
3:35 AM 42.8 °F - 41.0 °F 93% 29.95 in 0.5 mi Calm Calm - N/A Fog Fog
3:55 AM 42.8 °F - 41.0 °F 93% 29.95 in 0.5 mi Calm Calm - N/A Fog Fog
4:15 AM 42.8 °F 41.1 °F 41.0 °F 93% 29.96 in 2.0 mi SSE 3.5 mph - N/A   Mostly Cloudy
4:35 AM 42.8 °F 41.1 °F 41.0 °F 93% 29.96 in 2.5 mi SSE 3.5 mph - N/A   Partly Cloudy
4:55 AM 41.0 °F - 39.2 °F 93% 29.97 in 0.5 mi Calm Calm - N/A Fog Fog
5:15 AM 41.0 °F - 39.2 °F 93% 29.97 in 0.8 mi Calm Calm - N/A   Overcast
5:35 AM 41.0 °F - 41.0 °F 100% 29.98 in 1.0 mi Calm Calm - N/A   Overcast
5:55 AM 41.0 °F - 41.0 °F 100% 29.99 in 0.5 mi Calm Calm - N/A Fog Fog
6:15 AM 41.0 °F - 39.2 °F 93% 30.00 in 0.5 mi Calm Calm - N/A Fog Fog
6:35 AM 41.0 °F - 39.2 °F 93% 30.00 in 0.5 mi Calm Calm - N/A Fog Fog
6:55 AM 41.0 °F - 39.2 °F 93% 30.01 in 0.2 mi Calm Calm - N/A Fog Fog
7:15 AM 41.0 °F - 39.2 °F 93% 30.02 in 0.2 mi Calm Calm - N/A Fog Fog
7:35 AM 41.0 °F - 41.0 °F 100% 30.03 in 0.5 mi Calm Calm - N/A Fog Fog
8:15 AM 44.6 °F - 42.8 °F 93% 30.04 in 0.2 mi Calm Calm - N/A Fog Fog
8:35 AM 46.4 °F - 44.6 °F 93% 30.05 in 1.0 mi Calm Calm - N/A   Overcast
8:55 AM 48.2 °F - 48.2 °F 100% 30.06 in 1.5 mi Calm Calm - N/A   Overcast
9:15 AM 50.0 °F - 50.0 °F 100% 30.06 in 10.0 mi NNW 4.6 mph - N/A   Scattered Clouds
9:35 AM 53.6 °F - 50.0 °F 88% 30.07 in 10.0 mi North 5.8 mph - N/A   Clear
9:55 AM 57.2 °F - 50.0 °F 77% 30.07 in 10.0 mi North 6.9 mph - N/A   Clear
10:15 AM 57.2 °F - 50.0 °F 77% 30.07 in 10.0 mi North 8.1 mph - N/A   Partly Cloudy
10:35 AM 57.2 °F - 48.2 °F 72% 30.08 in 10.0 mi North 5.8 mph - N/A   Scattered Clouds
10:55 AM 59.0 °F - 50.0 °F 72% 30.08 in 10.0 mi NNW 6.9 mph - N/A   Mostly Cloudy
11:15 AM 59.0 °F - 48.2 °F 67% 30.09 in 10.0 mi NE 6.9 mph - N/A   Partly Cloudy
11:35 AM 59.0 °F - 48.2 °F 67% 30.08 in 10.0 mi North 5.8 mph - N/A   Clear
11:55 AM 62.6 °F - 50.0 °F 63% 30.09 in 10.0 mi NNE 8.1 mph - N/A   Scattered Clouds
12:15 PM 62.6 °F - 48.2 °F 59% 30.09 in 10.0 mi NNE 6.9 mph - N/A   Partly Cloudy
12:35 PM 64.4 °F - 48.2 °F 56% 30.09 in 10.0 mi NNE 6.9 mph - N/A   Clear
12:55 PM 64.4 °F - 48.2 °F 56% 30.09 in 10.0 mi NE 4.6 mph - N/A   Clear
1:15 PM 64.4 °F - 48.2 °F 56% 30.08 in 10.0 mi NNW 9.2 mph - N/A   Clear
1:35 PM 64.4 °F - 46.4 °F 52% 30.08 in 10.0 mi North 10.4 mph - N/A   Clear
1:55 PM 64.4 °F - 46.4 °F 52% 30.07 in 10.0 mi NNW 3.5 mph - N/A   Clear
2:15 PM 66.2 °F - 44.6 °F 46% 30.07 in 10.0 mi NNE 3.5 mph - N/A   Clear
2:35 PM 68.0 °F - 46.4 °F 46% 30.06 in 10.0 mi NW 9.2 mph - N/A   Clear
2:55 PM 66.2 °F - 44.6 °F 46% 30.06 in 10.0 mi NNW 8.1 mph 17.3 mph N/A   Clear
3:15 PM 66.2 °F - 44.6 °F 46% 30.06 in 10.0 mi North 8.1 mph - N/A   Clear
3:35 PM 66.2 °F - 41.0 °F 40% 30.05 in 10.0 mi WNW 9.2 mph - N/A   Clear
3:55 PM 68.0 °F - 41.0 °F 37% 30.04 in 10.0 mi NNW 10.4 mph 16.1 mph N/A   Clear
4:15 PM 66.2 °F - 41.0 °F 40% 30.04 in 10.0 mi NW 6.9 mph - N/A   Clear
4:35 PM 66.2 °F - 41.0 °F 40% 30.04 in 10.0 mi NNW 10.4 mph 17.3 mph N/A   Clear
4:55 PM 66.2 °F - 39.2 °F 37% 30.04 in 10.0 mi NNW 10.4 mph - N/A   Clear
5:15 PM 66.2 °F - 39.2 °F 37% 30.04 in 10.0 mi WNW 11.5 mph - N/A   Clear
5:35 PM 66.2 °F - 39.2 °F 37% 30.05 in 10.0 mi NW 10.4 mph - N/A   Clear
5:55 PM 66.2 °F - 41.0 °F 40% 30.04 in 10.0 mi WNW 10.4 mph - N/A   Clear
6:15 PM 64.4 °F - 41.0 °F 42% 30.05 in 10.0 mi NW 11.5 mph 16.1 mph N/A   Clear
6:35 PM 64.4 °F - 41.0 °F 42% 30.06 in 10.0 mi NNW 11.5 mph - N/A   Clear
6:55 PM 62.6 °F - 39.2 °F 42% 30.06 in 10.0 mi NNW 8.1 mph - N/A   Clear
7:15 PM 60.8 °F - 39.2 °F 45% 30.07 in 10.0 mi NNW 11.5 mph 17.3 mph N/A   Clear
7:35 PM 59.0 °F - 39.2 °F 48% 30.09 in 10.0 mi North 8.1 mph - N/A   Clear
7:55 PM 57.2 °F - 39.2 °F 51% 30.09 in 10.0 mi North 9.2 mph - N/A   Clear
8:15 PM 57.2 °F - 39.2 °F 51% 30.10 in 10.0 mi NNW 6.9 mph - N/A   Clear
8:35 PM 55.4 °F - 37.4 °F 51% 30.10 in 10.0 mi North 5.8 mph - N/A   Clear
8:55 PM 55.4 °F - 37.4 °F 51% 30.11 in 10.0 mi North 5.8 mph - N/A   Clear
9:15 PM 55.4 °F - 39.2 °F 54% 30.12 in 10.0 mi NNW 6.9 mph - N/A   Clear
9:35 PM 53.6 °F - 39.2 °F 58% 30.12 in 10.0 mi North 6.9 mph - N/A   Clear
9:55 PM 53.6 °F - 37.4 °F 54% 30.12 in 10.0 mi North 4.6 mph - N/A   Clear
10:15 PM 53.6 °F - 39.2 °F 58% 30.13 in 10.0 mi North 4.6 mph - N/A   Clear
10:35 PM 51.8 °F - 39.2 °F 62% 30.13 in 10.0 mi North 3.5 mph - N/A   Clear
10:55 PM 53.6 °F - 37.4 °F 54% 30.12 in 10.0 mi North 5.8 mph - N/A   Clear
11:15 PM 53.6 °F - 39.2 °F 58% 30.13 in 10.0 mi NNW 4.6 mph - N/A   Partly Cloudy
11:35 PM 51.8 °F - 39.2 °F 62% 30.13 in 10.0 mi North 6.9 mph - N/A   Clear
11:55 PM 50.0 °F - 37.4 °F 62% 30.12 in 10.0 mi North 3.5 mph - N/A   Clear